Weather History for PAFB - October, 2012

Change the Weather History Date:

Saturday, October 6, 2012

  Actual Average Record
Temperature  
Mean Temperature 42 °F -  
Max Temperature 44 °F 37 °F 62 °F (2003)
Min Temperature 39 °F 24 °F 23 °F (2014)
Degree Days  
Heating Degree Days 24    
Moisture  
Dew Point 39 °F    
Average Humidity 89    
Maximum Humidity 100    
Minimum Humidity 76    
Precipitation  
Precipitation 0.16 in - - ()
Sea Level Pressure  
Sea Level Pressure 30.17 in    
Wind  
Wind Speed 3 mph (SSW)    
Max Wind Speed 8 mph    
Max Gust Speed -    
Visibility 10 miles    
Events Rain    
Averages and records for this station are not official NWS values.
T = Trace of Precipitation, MM = Missing Value Source: NWS Daily Summary

Daily Weather History Graph

Daily Weather History Graph

Search for Another Location

Airport or City:

Trip Planner

Search our weather history database for the weather conditions in past years. The results will help you decide how hot, cold, wet, or windy it might be!

Date:

Astronomy

Oct. 06, 2012 Rise Set
Actual Time 8:17 AM AKDT 6:57 PM AKDT
Civil Twilight 7:28 AM AKDT 7:46 PM AKDT
Nautical Twilight 6:31 AM AKDT 8:43 PM AKDT
Astronomical Twilight 5:30 AM AKDT 9:43 PM AKDT
Moon 9:27 PM AKDT 4:16 PM AKDT
Length of Visible Light 12h 18m
Length of Day
10h 40m
Waning Gibbous, 64% of the Moon is Illuminated
Oct 6
Waning Gibbous
Oct 7
Last Quarter
Oct 15
New
Oct 21
First Quarter
Oct 29
Full

Hourly Weather History & Observations

Time (AKDT) Temp. Windchill Dew Point Humidity Pressure Visibility Wind Dir Wind Speed Gust Speed Precip Events Conditions
12:56 AM 42.1 °F - 39.9 °F 92% 30.05 in 9.0 mi Calm Calm - 0.01 in Rain Light Rain
1:56 AM 42.1 °F - 39.9 °F 92% 30.04 in 10.0 mi Calm Calm - 0.01 in   Overcast
2:56 AM 41.0 °F - 39.0 °F 93% 30.04 in 10.0 mi Calm Calm - N/A   Overcast
3:31 AM 42.8 °F 41.1 °F 39.2 °F 87% 30.03 in 6.2 mi WSW 3.5 mph - 0.00 in Rain Light Rain
3:56 AM 42.1 °F - 39.9 °F 92% 30.05 in 10.0 mi Calm Calm - 0.01 in Rain Light Rain
4:56 AM 41.0 °F - 39.0 °F 93% 30.05 in 9.0 mi Calm Calm - 0.02 in Rain Light Rain
5:56 AM 39.9 °F 37.8 °F 37.9 °F 93% 30.06 in 10.0 mi WSW 3.5 mph - 0.01 in Rain Light Rain
6:20 AM 39.2 °F - 37.4 °F 93% 30.05 in 10.0 mi Calm Calm - 0.00 in Rain Light Rain
6:56 AM 39.9 °F 37.8 °F 37.9 °F 93% 30.08 in 10.0 mi West 3.5 mph - 0.01 in Rain Light Rain
7:15 AM 39.2 °F 35.9 °F 37.4 °F 93% 30.07 in 8.0 mi West 4.6 mph - 0.01 in Rain Light Rain
7:28 AM 39.2 °F 35.9 °F 37.4 °F 93% 30.07 in 8.0 mi West 4.6 mph - 0.02 in Rain Light Rain
7:56 AM 39.9 °F - 37.9 °F 93% 30.10 in 8.0 mi Calm Calm - 0.03 in Rain Light Rain
8:17 AM 39.2 °F 35.0 °F 37.4 °F 93% 30.10 in 6.2 mi WSW 5.8 mph - 0.02 in Rain Light Rain
8:26 AM 39.2 °F 33.6 °F 37.4 °F 93% 30.10 in 10.0 mi West 8.1 mph - 0.02 in Rain Light Rain
8:53 AM 39.2 °F 37.0 °F 39.2 °F 100% 30.11 in 10.0 mi NW 3.5 mph - 0.03 in Rain Light Rain
8:56 AM 39.9 °F - 39.0 °F 97% 30.13 in 10.0 mi Calm Calm - 0.03 in Rain Light Rain
9:56 AM 41.0 °F 38.0 °F 37.9 °F 89% 30.15 in 10.0 mi SW 4.6 mph - 0.01 in   Overcast
10:56 AM 42.1 °F 40.2 °F 37.9 °F 85% 30.18 in 10.0 mi SSW 3.5 mph - 0.00 in   Overcast
11:30 AM 42.8 °F 40.1 °F 39.2 °F 87% 30.18 in 10.0 mi South 4.6 mph - 0.00 in   Overcast
11:38 AM 42.8 °F 40.1 °F 39.2 °F 87% 30.18 in 10.0 mi South 4.6 mph - 0.00 in   Overcast
11:54 AM 42.8 °F 40.1 °F 39.2 °F 87% 30.19 in 10.0 mi SSW 4.6 mph - 0.00 in   Overcast
11:56 AM 42.1 °F 39.2 °F 39.0 °F 89% 30.21 in 10.0 mi SSW 4.6 mph - 0.00 in   Overcast
12:09 PM 42.8 °F 41.1 °F 39.2 °F 87% 30.19 in 10.0 mi SSW 3.5 mph - 0.00 in Rain Light Rain
12:56 PM 43.0 °F 39.5 °F 39.0 °F 86% 30.23 in 10.0 mi SSW 5.8 mph - 0.01 in   Overcast
1:41 PM 42.8 °F 38.6 °F 37.4 °F 81% 30.23 in 10.0 mi SSW 6.9 mph - N/A   Overcast
1:56 PM 43.0 °F 38.8 °F 39.0 °F 86% 30.25 in 10.0 mi South 6.9 mph - 0.00 in Rain Light Rain
2:43 PM 42.8 °F 38.0 °F 39.2 °F 87% 30.23 in 10.0 mi SSW 8.1 mph - 0.01 in   Overcast
2:56 PM 43.0 °F 38.2 °F 39.0 °F 86% 30.25 in 10.0 mi SSW 8.1 mph - 0.01 in   Overcast
3:41 PM 44.6 °F 43.1 °F 37.4 °F 76% 30.23 in 10.0 mi South 3.5 mph - N/A   Overcast
3:56 PM 44.1 °F - 39.0 °F 82% 30.25 in 10.0 mi Calm Calm - N/A   Overcast
4:56 PM 44.1 °F 42.5 °F 39.0 °F 82% 30.25 in 10.0 mi SE 3.5 mph - N/A   Overcast
5:56 PM 44.1 °F - 39.9 °F 85% 30.27 in 10.0 mi Calm Calm - N/A   Overcast
6:56 PM 43.0 °F 39.5 °F 39.9 °F 89% 30.25 in 10.0 mi ESE 5.8 mph - N/A   Overcast
7:07 PM 42.8 °F 38.6 °F 39.2 °F 87% 30.23 in 10.0 mi SE 6.9 mph - N/A   Mostly Cloudy
7:20 PM 42.8 °F 39.3 °F 39.2 °F 87% 30.23 in 10.0 mi SE 5.8 mph - N/A   Mostly Cloudy
7:44 PM 42.8 °F 41.1 °F 37.4 °F 81% 30.23 in 10.0 mi SE 3.5 mph - N/A   Mostly Cloudy
7:54 PM 42.8 °F - 39.2 °F 87% 30.23 in 10.0 mi Calm Calm - N/A   Overcast
7:56 PM 42.1 °F - 39.0 °F 89% 30.26 in 10.0 mi Calm Calm - N/A   Overcast
8:56 PM 41.0 °F 37.1 °F 39.0 °F 93% 30.25 in 10.0 mi East 5.8 mph - N/A   Mostly Cloudy
9:19 PM 41.0 °F 38.0 °F 37.4 °F 87% 30.23 in 10.0 mi East 4.6 mph - N/A   Scattered Clouds
9:56 PM 39.9 °F 36.7 °F 37.9 °F 93% 30.26 in 10.0 mi ENE 4.6 mph - N/A   Scattered Clouds
10:56 PM 39.9 °F - 37.9 °F 93% 30.29 in 10.0 mi Calm Calm - N/A   Overcast
11:56 PM 39.9 °F - 37.9 °F 93% 30.30 in 10.0 mi Calm Calm - 0.00 in   Overcast